Fond du Lac, WI

6:38 AM CDT on October 17, 2017 (GMT -0500)
Fond du Lac County

Weather History for KFLD - February, 2014

Change the Weather History Date:

Wednesday, February 19, 2014

  Actual Average Record
Temperature  
Mean Temperature 35 °F -  
Max Temperature 42 °F 31 °F 60 °F (2017)
Min Temperature 28 °F 18 °F -20 °F (1959)
Degree Days  
Heating Degree Days 30    
Moisture  
Dew Point 22 °F    
Average Humidity 63    
Maximum Humidity 78    
Minimum Humidity 49    
Precipitation  
Precipitation 0.00 in - - ()
Sea Level Pressure  
Sea Level Pressure 29.84 in    
Wind  
Wind Speed 7 mph (SW)    
Max Wind Speed 12 mph    
Max Gust Speed -    
Visibility 10 miles    
Events      
Averages and records for this station are not official NWS values.
T = Trace of Precipitation, MM = Missing Value Source: NWS Daily Summary

Daily Weather History Graph

Daily Weather History Graph

Search for Another Location

Airport or City:

Trip Planner

Search our weather history database for the weather conditions in past years. The results will help you decide how hot, cold, wet, or windy it might be!

Date:

Astronomy

Feb. 19, 2014 Rise Set
Actual Time 6:46 AM CST 5:29 PM CST
Civil Twilight 6:17 AM CST 5:58 PM CST
Nautical Twilight 5:43 AM CST 6:32 PM CST
Astronomical Twilight 5:10 AM CST 7:05 PM CST
Moon 10:33 PM CST (2/19) 8:42 AM CST (2/19)
Length of Visible Light 11h 41m
Length of Day
10h 42m
Waning Gibbous, 79% of the Moon is Illuminated
Feb 19
Waning Gibbous
Feb 22
Last Quarter
Mar 1
New
Mar 8
First Quarter
Mar 16
Full

Hourly Weather History & Observations

Time (CST) Temp. Windchill Dew Point Humidity Pressure Visibility Wind Dir Wind Speed Gust Speed Precip Events Conditions
12:53 AM 28.9 °F 25.2 °F 23.0 °F 78% 29.67 in 10.0 mi WNW 3.5 mph - N/A   Mostly Cloudy
1:53 AM 35.1 °F 29.3 °F 26.1 °F 70% 29.67 in 10.0 mi NNW 6.9 mph - N/A   Overcast
2:53 AM 34.0 °F 27.2 °F 26.1 °F 73% 29.67 in 10.0 mi WNW 8.1 mph - 0.00 in   Overcast
3:53 AM 34.0 °F 26.0 °F 24.1 °F 67% 29.70 in 10.0 mi WNW 10.4 mph - N/A   Partly Cloudy
4:53 AM 30.9 °F 22.8 °F 21.9 °F 69% 29.73 in 10.0 mi WNW 9.2 mph - N/A   Clear
5:53 AM 30.0 °F - 21.0 °F 69% 29.76 in 10.0 mi Calm Calm - N/A   Clear
6:53 AM 28.0 °F 24.2 °F 19.9 °F 72% 29.80 in 10.0 mi Variable 3.5 mph - N/A   Clear
7:53 AM 28.0 °F 22.8 °F 19.9 °F 72% 29.82 in 10.0 mi SSW 4.6 mph - N/A   Clear
8:53 AM 30.9 °F 25.2 °F 19.9 °F 64% 29.84 in 10.0 mi West 5.8 mph - N/A   Clear
9:53 AM 33.1 °F 26.9 °F 21.0 °F 61% 29.86 in 10.0 mi WSW 6.9 mph - N/A   Clear
10:53 AM 35.1 °F 26.9 °F 21.9 °F 59% 29.87 in 10.0 mi WSW 11.5 mph - N/A   Clear
11:53 AM 37.9 °F 30.5 °F 21.9 °F 53% 29.88 in 10.0 mi WSW 11.5 mph - N/A   Clear
12:53 PM 39.0 °F 32.3 °F 21.9 °F 50% 29.88 in 10.0 mi WSW 10.4 mph - N/A   Clear
1:53 PM 41.0 °F 35.2 °F 23.0 °F 49% 29.88 in 10.0 mi WSW 9.2 mph - N/A   Clear
2:53 PM 42.1 °F 36.1 °F 24.1 °F 49% 29.88 in 10.0 mi SSW 10.4 mph - N/A   Clear
3:53 PM 41.0 °F 34.3 °F 25.0 °F 53% 29.91 in 10.0 mi SSW 11.5 mph - N/A   Clear
4:53 PM 39.9 °F 33.9 °F 23.0 °F 51% 29.92 in 10.0 mi SSW 9.2 mph - N/A   Clear
5:53 PM 37.0 °F 30.4 °F 24.1 °F 59% 29.91 in 10.0 mi South 9.2 mph - N/A   Clear
6:53 PM 34.0 °F 26.6 °F 21.9 °F 61% 29.93 in 10.0 mi South 9.2 mph - N/A   Clear
7:53 PM 30.9 °F 21.7 °F 21.0 °F 67% 29.92 in 10.0 mi South 11.5 mph - N/A   Clear
8:53 PM 30.0 °F 21.1 °F 19.9 °F 66% 29.91 in 10.0 mi South 10.4 mph - N/A   Clear
9:53 PM 30.0 °F 23.2 °F 19.9 °F 66% 29.93 in 10.0 mi South 6.9 mph - N/A   Clear
10:53 PM 30.0 °F 21.1 °F 19.0 °F 64% 29.92 in 10.0 mi South 10.4 mph - N/A   Clear
11:53 PM 32.0 °F 25.6 °F 21.0 °F 64% 29.90 in 10.0 mi South 6.9 mph - N/A   Overcast